Location: Boursonne
(49.2024°N, 3.0468°E)
Time: 03:11:37
(UTC+00:00)

Terra - Pass Details

Date: 03 March 2021
Orbit: 701 x 703 km, 98.2° (Epoch: 16 April)

Event Time Altitude Azimuth Distance (km) Brightness Sun altitude
Exits shadow 21:21:35 16° 355° (N) 1,811 4.3 -35.9°
Drops below altitude 10° 21:22:32 10° 353° (N) 2,184 4.8 -36.0°
Sets 21:24:49 0° 349° (N) 3,107 5.8 -36.3°
